Flag for USA Weather for the Past 2 Weeks in Avalon (Santa Catalina Island), California, USA

Now
60 °F

Sunny.


Feels Like: 60 °F
Forecast: 58 / 70 °F
Wind: 13 mph from Southwest

Location: Catalina Airport

Current Time: May 3, 2016 at 3:18:23 PM

Latest Report: May 3, 2016 at 1:51 PM


Visibility: 10 mi

Pressure: 29.96 "Hg

Humidity: 75%

Dew Point: 52 °F

Location of Avalon (Santa Catalina Island)Location

Historic Weather in Avalon (Santa Catalina Island) — Graph

°F

Avalon (Santa Catalina Island) Temperature Yesterday

Maximum temperature yesterday: 64 °F (at 11:51 AM)
Minimum temperature yesterday: 51 °F (at 1:51 AM)
Average temperature yesterday: 57 °F

High & Low Weather Summary for the Past Weeks

 TemperatureHumidityPressure
High80 °F (Apr 19, 1:51 PM)100% (Apr 21, 10:51 PM)30.06 "Hg (Apr 21, 10:51 PM)
Low47 °F (Apr 25, 5:51 AM)8% (Apr 18, 8:51 PM)29.76 "Hg (Apr 27, 11:51 PM)
Average58 °F63%29.92 "Hg
* Reported Apr 18 1:51 PM — May 3 1:51 PM, Avalon (Santa Catalina Island), Weather by CustomWeather, © 2016

Note: Actual official high and low records may vary slightly from our data, if they occured in-between our weather recording intervals... More about our weather records

Advertising

Avalon (Santa Catalina Island) Weather History for the Previous 24 Hours

Scroll right to see more
 ConditionsComfort  
Time TempWeatherWind HumidityBarometerVisibility
1:51 PM
Tue, May 3
60 °FSunny.13 mph75%29.96 "Hg10 mi
12:51 PM75 °FSunny.No wind43%29.93 "Hg10 mi
11:51 AM68 °FSunny.6 mph55%29.96 "Hg10 mi
10:51 AM65 °FSunny.5 mph61%29.97 "Hg10 mi
9:51 AM64 °FSunny.5 mph54%29.97 "Hg10 mi
8:51 AM63 °FSunny.3 mph52%29.96 "Hg10 mi
7:51 AM62 °FSunny.3 mph56%29.96 "Hg10 mi
6:51 AM61 °FClear.No wind56%29.95 "Hg10 mi
5:51 AM61 °FClear.5 mph46%29.94 "Hg10 mi
4:51 AM61 °FClear.3 mph50%29.94 "Hg10 mi
3:51 AM59 °FClear.7 mph58%29.93 "Hg10 mi
2:51 AM59 °FClear.7 mph60%29.94 "Hg10 mi
1:51 AM60 °FClear.6 mph56%29.95 "Hg10 mi
12:51 AM62 °FClear.6 mph52%29.96 "Hg10 mi
11:51 PM
Mon, May 2
61 °FClear.6 mph54%29.97 "Hg10 mi
10:51 PM61 °FClear.5 mph54%29.98 "Hg10 mi
9:51 PM61 °FClear.7 mph58%29.99 "Hg10 mi
8:51 PM60 °FClear.12 mph53%29.97 "Hg10 mi
7:51 PM57 °FSunny.9 mph62%29.97 "Hg10 mi
6:51 PM58 °FSunny.10 mph62%29.96 "Hg10 mi
5:51 PM57 °FSunny.8 mph72%29.97 "Hg10 mi
4:51 PM59 °FSunny.14 mph72%29.97 "Hg10 mi
3:51 PM62 °FSunny.15 mph67%29.97 "Hg10 mi
Weather by CustomWeather, © 2016

See weather overviewHow to use our weather pages